sat.trackr.live / text

‹ back to catalog

STARLINK-34492

NORAD 64473 · 2025-133B

PAYLOAD ACTIVE UNKNOWN

§ Identity

Operator
Country
US
Launch date
2025-06-23
Launch site
AFETR
Launch vehicle
Mass (kg)
RCS (m²)

Purposes: comms

External: N2YO · Heavens-Above · Gunter

§ Orbital elements

Epoch: 2026-09-20T08:12:49.681152Z

Period
93.85 min
Inclination
53.1591°
Eccentricity
0.0001601
Mean motion
15.34404281 rev/d
Perigee alt
461.6 km
Apogee alt
463.8 km
Semi-major
6,840.8 km
B*
7.5187e-4
RAAN
290.3180°
Arg perigee
99.0225°
Mean anomaly
261.0959°
Rev number
7,102

§ Raw data

STARLINK-344921 64473U 25133B   26263.34224168  .00025116  00000+0  75187-3 0  99922 64473  53.1591 290.3180 0001601  99.0225 261.0959 15.34404281 71022

JSON: /api/v1/satellites/64473 · /tle

For live sub-satellite position, see the globe view (requires WebGL).

§ Visibility from observer

Set your observer location to see the next 7 days of passes ≥ 10°. The values pass through the URL so the page stays shareable.

No JS? Fill the form by hand. The geolocation button needs JavaScript.